Total_Precipitation_Accumulation
1.54 1.51 2.37 3.50 4.08 3.20 2.80 2.61 2.17 1.91 1.50 1.21 0.99 1.01 1.39 1.73 1.91 2.22 2.37 2.47 1.62 1.42 1.64 2.21 2.77 2.59 2.37 2.26 2.28 2.16 1.90 1.54 1.31 1.29 1.29 1.18 1.13 1.11 1.04 1.05 1.00 0.98 0.98 1.00 1.17 1.38 1.36 1.34 1.34
1.19 1.85 2.94 3.99 3.59 2.74 2.78 2.52 2.15 1.78 1.29 0.96 0.79 0.79 0.87 0.83 0.75 1.26 2.45 2.66 1.59 1.28 1.45 1.73 2.49 2.43 2.38 2.33 2.13 2.08 1.82 1.48 1.32 1.30 1.24 1.08 1.05 1.11 1.16 1.15 1.05 1.02 1.00 0.93 0.97 1.23 1.37 1.36 1.32
1.65 2.55 3.54 3.76 2.80 2.55 2.75 2.49 2.06 1.38 0.98 0.86 0.78 0.69 0.78 0.99 1.05 1.62 2.38 1.96 1.45 1.28 1.49 2.11 2.61 2.37 2.30 2.15 1.94 1.92 1.80 1.57 1.43 1.34 1.22 1.16 1.12 1.09 1.16 1.15 1.12 1.15 1.10 1.06 1.08 1.27 1.30 1.32 1.30
2.11 3.07 3.46 3.12 2.50 2.20 2.21 2.13 1.79 1.32 0.99 0.68 0.68 0.74 0.75 1.12 1.30 1.61 1.79 1.44 1.30 1.30 1.49 2.07 2.35 2.09 1.97 1.88 1.79 1.72 1.77 1.76 1.52 1.32 1.27 1.27 1.22 1.25 1.28 1.27 1.19 1.25 1.22 1.24 1.24 1.26 1.29 1.32 1.38
2.55 3.14 3.16 2.92 2.55 2.24 1.88 1.72 1.60 1.41 1.13 0.79 0.75 0.90 1.17 1.71 1.63 1.51 1.50 1.32 1.19 1.14 1.25 1.65 2.05 1.86 1.75 1.72 1.70 1.60 1.68 1.78 1.63 1.33 1.37 1.39 1.33 1.38 1.44 1.43 1.32 1.32 1.31 1.31 1.35 1.28 1.36 1.39 1.38
2.99 2.93 2.99 2.93 2.77 2.42 1.99 1.52 1.35 1.32 1.06 0.84 0.86 1.00 1.55 2.06 1.92 1.80 1.53 1.53 1.34 1.18 1.13 1.29 1.66 1.70 1.58 1.59 1.70 1.61 1.60 1.70 1.62 1.45 1.43 1.34 1.37 1.48 1.53 1.44 1.32 1.29 1.32 1.40 1.41 1.36 1.39 1.37 1.42
2.88 2.74 2.76 2.42 2.52 2.76 2.11 1.34 1.36 1.33 1.23 1.01 0.77 0.99 1.48 1.82 1.69 1.64 1.50 1.51 1.54 1.47 1.35 1.20 1.21 1.33 1.41 1.50 1.63 1.59 1.55 1.56 1.49 1.54 1.55 1.53 1.53 1.50 1.41 1.35 1.30 1.31 1.36 1.41 1.40 1.32 1.31 1.36 1.42
2.35 2.40 2.34 2.33 2.53 2.68 1.92 1.20 1.06 1.20 1.16 0.80 0.83 1.09 1.35 1.35 1.31 1.34 1.42 1.59 1.60 1.55 1.42 1.19 1.07 1.08 1.19 1.17 1.35 1.57 1.61 1.57 1.48 1.51 1.57 1.62 1.57 1.42 1.35 1.22 1.31 1.39 1.42 1.51 1.47 1.38 1.33 1.38 1.38
1.95 2.38 2.63 2.69 2.60 2.28 1.54 1.23 0.99 0.89 0.87 0.80 0.79 0.87 0.98 0.90 1.02 1.17 1.16 1.22 1.35 1.29 1.21 1.12 1.06 1.10 1.20 1.22 1.22 1.52 1.61 1.53 1.35 1.30 1.44 1.45 1.25 1.20 1.22 1.23 1.52 1.53 1.60 1.71 1.65 1.56 1.51 1.39 1.38
1.98 2.36 2.44 2.00 1.62 1.54 1.32 1.17 1.06 1.12 1.15 0.94 0.86 0.87 0.92 0.91 0.97 1.03 1.02 1.04 1.07 1.00 0.91 0.89 0.89 0.98 1.09 1.14 1.46 1.70 1.54 1.46 1.21 1.22 1.15 1.19 1.23 1.33 1.19 1.30 1.65 1.70 1.75 1.75 1.77 1.71 1.54 1.23 1.05
1.65 2.01 1.72 1.50 1.24 1.04 1.08 1.08 0.88 1.04 1.23 1.00 0.92 0.88 0.94 0.99 0.97 1.00 0.98 0.87 0.84 0.77 0.69 0.65 0.61 0.63 0.71 0.91 1.26 1.56 1.70 1.69 1.65 1.46 1.25 1.24 1.07 0.98 0.95 1.03 1.21 1.31 1.42 1.38 1.44 1.43 1.20 1.07 1.05
1.60 1.58 1.40 1.38 1.03 0.98 0.98 0.93 0.88 0.90 0.98 0.88 0.95 0.86 0.85 0.92 0.94 0.92 0.92 0.86 0.74 0.72 0.68 0.59 0.55 0.51 0.53 0.60 0.78 1.00 1.20 1.29 1.35 1.26 1.12 1.17 1.05 0.96 0.98 0.99 0.98 0.98 1.10 1.25 1.26 1.26 1.16 1.04 0.98
1.67 1.65 1.33 1.09 0.97 0.91 0.84 0.81 0.82 0.89 0.81 0.75 0.87 0.94 0.96 0.93 0.92 0.97 1.02 0.97 0.83 0.83 0.83 0.73 0.60 0.55 0.55 0.59 0.64 0.71 0.89 1.01 1.05 1.09 1.03 1.05 1.07 1.04 1.00 0.93 0.93 0.86 0.97 1.14 1.24 1.21 1.15 1.16 1.12
1.48 1.47 1.48 1.29 1.07 0.97 0.96 0.84 0.73 0.88 0.85 0.83 0.93 1.01 0.97 0.98 0.89 0.88 0.93 0.99 0.93 0.88 0.87 0.85 0.72 0.68 0.65 0.62 0.62 0.65 0.74 0.82 0.85 0.83 0.84 0.95 1.05 1.03 1.02 1.00 1.03 1.00 1.05 1.18 1.20 1.13 1.19 1.29 1.21
1.34 1.59 1.60 1.41 1.15 1.04 1.05 1.14 0.85 0.80 0.87 0.92 1.02 0.96 0.88 0.92 0.87 0.85 0.83 0.85 0.89 0.87 0.82 0.82 0.81 0.82 0.80 0.75 0.69 0.67 0.73 0.80 0.80 0.78 0.73 0.76 0.85 0.91 0.96 0.98 0.98 1.03 1.15 1.23 1.28 1.13 1.18 1.19 1.13
1.69 2.03 2.13 1.55 1.29 1.10 1.23 1.39 0.94 0.87 0.91 0.87 0.87 0.83 0.80 0.84 0.81 0.79 0.81 0.78 0.78 0.74 0.72 0.77 0.76 0.78 0.83 0.84 0.82 0.84 0.82 0.87 0.81 0.80 0.74 0.70 0.76 0.85 0.99 1.01 0.98 1.01 1.17 1.31 1.39 1.31 1.30 1.28 1.24
1.90 1.94 1.84 1.51 1.22 1.11 1.12 1.10 0.85 0.87 0.95 0.80 0.77 0.74 0.71 0.69 0.68 0.64 0.69 0.74 0.73 0.67 0.67 0.66 0.70 0.69 0.75 0.82 0.85 0.95 0.97 0.98 0.92 0.89 0.80 0.77 0.84 0.94 1.13 1.23 1.23 1.22 1.25 1.29 1.29 1.39 1.42 1.41 1.41
1.57 1.47 1.36 1.27 1.05 0.98 0.95 0.80 0.68 0.73 0.78 0.71 0.62 0.59 0.58 0.58 0.54 0.53 0.57 0.61 0.64 0.65 0.64 0.62 0.65 0.66 0.69 0.81 0.92 1.09 1.20 1.17 1.17 1.08 0.96 0.96 1.11 1.29 1.46 1.46 1.54 1.60 1.50 1.49 1.46 1.51 1.47 1.42 1.49
1.04 1.13 1.16 1.07 0.82 0.81 0.78 0.65 0.60 0.62 0.66 0.65 0.57 0.50 0.48 0.50 0.47 0.45 0.48 0.54 0.55 0.58 0.60 0.59 0.56 0.64 0.67 0.71 0.84 1.06 1.35 1.45 1.55 1.47 1.27 1.21 1.32 1.58 1.83 1.80 1.89 1.96 1.87 1.83 1.84 2.07 2.02 1.74 1.56
1.03 1.21 1.18 1.06 0.75 0.69 0.68 0.58 0.50 0.50 0.57 0.54 0.52 0.49 0.43 0.44 0.38 0.34 0.35 0.39 0.42 0.46 0.52 0.53 0.52 0.59 0.64 0.70 0.86 1.01 1.17 1.18 1.35 1.47 1.43 1.35 1.35 1.50 1.64 1.92 2.06 2.04 2.14 2.25 2.24 2.61 2.75 2.26 1.84
1.01 1.04 1.01 0.97 0.79 0.68 0.63 0.64 0.47 0.43 0.47 0.44 0.41 0.42 0.38 0.37 0.36 0.33 0.32 0.33 0.34 0.36 0.36 0.38 0.42 0.50 0.61 0.75 0.95 1.16 1.35 1.43 1.50 1.42 1.50 1.51 1.43 1.47 1.59 1.74 1.89 1.93 2.05 2.22 2.33 2.66 3.20 2.96 2.32
0.94 0.69 0.63 0.70 0.88 0.92 0.73 0.86 0.57 0.47 0.50 0.45 0.39 0.35 0.34 0.34 0.34 0.39 0.35 0.38 0.36 0.33 0.30 0.33 0.42 0.55 0.73 0.93 1.15 1.38 1.58 1.62 1.52 1.55 1.58 1.47 1.39 1.36 1.45 1.59 1.72 1.84 1.88 2.04 2.13 2.27 2.83 3.23 2.91
0.63 0.53 0.51 0.59 0.76 0.73 0.55 0.66 0.57 0.46 0.56 0.51 0.44 0.39 0.34 0.32 0.34 0.35 0.34 0.38 0.38 0.36 0.38 0.44 0.63 0.85 1.08 1.28 1.53 1.80 1.77 1.66 1.57 1.56 1.55 1.50 1.49 1.46 1.45 1.59 1.67 1.69 1.76 1.88 2.22 2.49 2.78 3.02 3.01
0.43 0.51 0.56 0.63 0.78 0.77 0.48 0.54 0.59 0.44 0.47 0.50 0.48 0.41 0.33 0.30 0.36 0.43 0.49 0.58 0.63 0.65 0.79 0.97 1.23 1.41 1.49 1.60 1.75 1.86 1.80 1.80 1.75 1.56 1.49 1.48 1.53 1.58 1.61 1.65 1.66 1.65 1.69 1.81 2.05 2.35 2.58 2.89 3.09
0.42 0.70 1.01 1.05 1.04 0.75 0.39 0.56 0.62 0.43 0.36 0.37 0.39 0.34 0.28 0.33 0.43 0.57 0.73 0.86 0.99 1.13 1.28 1.42 1.57 1.70 1.65 1.62 1.67 1.71 1.69 1.66 1.64 1.57 1.50 1.44 1.46 1.51 1.53 1.61 1.73 1.80 1.85 1.97 2.15 2.30 2.24 2.44 2.83
0.43 0.64 1.06 1.18 0.99 0.70 0.52 0.76 0.70 0.50 0.37 0.29 0.23 0.22 0.32 0.47 0.61 0.73 0.81 0.92 1.09 1.26 1.34 1.34 1.43 1.53 1.50 1.48 1.46 1.44 1.49 1.49 1.43 1.34 1.31 1.36 1.45 1.45 1.39 1.42 1.51 1.65 1.83 1.89 1.95 2.00 1.96 2.06 2.31
0.40 0.43 0.48 0.72 0.61 0.62 0.68 0.83 0.72 0.48 0.40 0.32 0.28 0.31 0.45 0.67 0.88 1.03 1.14 1.24 1.28 1.34 1.42 1.34 1.32 1.38 1.39 1.34 1.28 1.27 1.30 1.35 1.34 1.26 1.26 1.25 1.26 1.19 1.11 1.11 1.17 1.25 1.32 1.42 1.58 1.68 1.79 1.83 1.96
0.31 0.41 0.56 0.85 0.96 0.99 0.93 0.93 0.81 0.61 0.53 0.54 0.61 0.71 0.75 0.85 1.12 1.41 1.65 1.82 1.64 1.38 1.30 1.29 1.23 1.23 1.33 1.31 1.25 1.20 1.26 1.26 1.24 1.24 1.20 1.20 1.20 1.11 1.02 0.98 0.96 0.95 0.92 0.96 1.16 1.37 1.49 1.57 1.72
0.34 0.48 0.60 0.79 0.90 1.17 1.39 1.34 1.02 1.00 0.98 1.03 1.12 1.16 1.16 1.26 1.26 1.41 1.61 1.78 1.69 1.38 1.16 1.20 1.25 1.24 1.24 1.24 1.25 1.21 1.17 1.08 1.07 1.09 1.08 1.07 1.06 1.10 1.07 0.97 0.92 1.02 1.03 0.98 1.04 1.11 1.18 1.25 1.38
0.45 0.57 0.73 1.04 0.97 0.96 1.25 1.35 1.07 1.05 1.06 1.13 1.29 1.35 1.34 1.25 1.16 1.15 1.21 1.28 1.31 1.17 0.98 0.95 1.11 1.19 1.17 1.15 1.18 1.15 1.05 0.98 0.95 0.93 0.88 0.78 0.74 0.76 0.86 0.95 0.89 0.87 0.92 0.94 0.99 1.02 1.06 1.11 1.21